Regional Weather Roundup
Issued by NWS Albany, NY

Home | Current Version | Previous Version | Graphics & Text | Print | Product List | Glossary Off
Versions: 1 2 3 4 5 6 7 8 9 10 11 12 13 14 15 16 17 18 19 20 21 22 23 24 25 26 27 28 29 30 31 32 33 34 35 36 37 38 39 40 41 42 43 44 45 46 47 48 49 50

000
ASUS41 KALY 290810
RWRALY

NEW YORK STATE HOURLY WEATHER ROUNDUP
NATIONAL WEATHER SERVICE ALBANY NY
400 AM EDT SUN MAR 29 2015

NOTE: "FAIR" INDICATES FEW OR NO CLOUDS BELOW 12,000 FEET WITH NO
SIGNIFICANT WEATHER AND/OR NO OBSTRUCTIONS TO VISIBILITY.

NYZ032-033-038>043-046>054-057>066-NYZ062>081-290900-
EAST


CITY           SKY/WX    TMP DP  RH WIND       PRES   REMARKS
ALBANY         CLEAR     13   5  70 CALM      30.17R
GLENS FALLS    CLEAR     18   4  54 CALM      30.15R
POUGHKEEPSIE   PTCLDY    25   4  40 NW3       30.16R
NEWBURGH       PTCLDY    23   9  54 CALM      30.15R
MONTGOMERY     CLEAR     22   3  44 NW8       30.14R WCI  12
WHITE PLAINS   MOCLDY    24   9  52 NW17      30.11R WCI  11
ISLIP          CLOUDY    26  16  65 N13       30.09R WCI  15
NEW YORK CITY  CLOUDY    27  10  49 NW13      30.15R WCI  16
CENTRAL PARK   CLOUDY    26   6  42 NW8       30.17R WCI  18
$$

NYZ005>009-017-018-044>046-055-056-290900-
CENTRAL


CITY           SKY/WX    TMP DP  RH WIND       PRES   REMARKS
FULTON         CLEAR     15   9  76 CALM      30.20S
SYRACUSE       CLEAR     19  12  74 W8        30.20S WCI   9
ROME           CLEAR     10   5  80 CALM      30.21S
ELMIRA         CLEAR     13   9  84 W8        30.21S WCI   2
BINGHAMTON     CLEAR     14   7  73 NW6       30.12R WCI   5
MONTICELLO     CLEAR     14   3  62 W7        30.11R WCI   4
$$

NYZ026>034-041>043-290900-
NORTH


CITY           SKY/WX    TMP DP  RH WIND       PRES   REMARKS
WATERTOWN      CLEAR     13   8  81 CALM      30.20S
FORT DRUM      NOT AVBL
MASSENA        CLEAR     15   4  61 SW6       30.18S WCI   6
SARANAC LAKE   CLEAR     -7 -12  79 CALM      30.06R
PLATTSBURGH    CLEAR     20   1  43 VRB3      30.13R
$$

NYZ001>004-010>016-019>021-290900-
WEST


CITY           SKY/WX    TMP DP  RH WIND       PRES   REMARKS
NIAGARA FALLS  CLEAR     18  11  74 SW6       30.25F WCI  10
BUFFALO        CLEAR     16  11  80 S6        30.26S WCI   7
DUNKIRK        CLEAR     17  11  77 SW6       30.29S WCI   9
JAMESTOWN      CLEAR     12   7  79 W6        30.20S WCI   3
WELLSVILLE     CLEAR     12   6  77 W9        30.16S WCI   0
ROCHESTER      CLEAR     20  11  68 W6        30.25R WCI  12
PENN YAN       CLEAR     20  10  65 SW6       30.20S WCI  12
$$

             KEY
       WCI = WIND CHILL INDEX
       VSB = VISIBILITY
       HX  = HEAT INDEX
$$



USA.gov is the U.S. government's official web portal to all federal, state and local government web resources and services.